RYR11ZP EBCI-LIRP

Flight info

Callsign RYR11ZP
Flight time 1h 15m
Altitude 35000
Route RITAX DCT GTQ DCT DEVDI DCT ODINA DCT SRN DCT MIVKI
Aircraft B38M/M-SDE1FGHILORVWXY/HB1

Departure

Time 2026-04-29 13:50
Airport Brussels South Charleroi Airport (EBCI)

Arrival

Time 2026-04-29 15:06
Airport Pisa International Airport (LIRP)
Time Latitude Longitude Altitude Speed Heading
2026-04-29 13:16 50.46868 4.47099 587 ft 0 kts 335°
2026-04-29 13:42 50.46855 4.47109 587 ft 4 kts 333°
2026-04-29 13:42 50.46835 4.47133 587 ft 4 kts 300°
2026-04-29 13:42 50.46831 4.47169 588 ft 4 kts 251°
2026-04-29 13:43 50.46833 4.47178 588 ft 1 kts 245°
2026-04-29 13:46 50.46824 4.47145 588 ft 9 kts 245°
2026-04-29 13:46 50.46773 4.46974 588 ft 25 kts 248°
2026-04-29 13:46 50.46672 4.46777 592 ft 20 kts 159°
2026-04-29 13:46 50.46578 4.46701 593 ft 18 kts 244°
2026-04-29 13:47 50.46506 4.46464 591 ft 31 kts 244°
2026-04-29 13:47 50.46408 4.46121 594 ft 36 kts 245°
2026-04-29 13:47 50.46307 4.45769 599 ft 36 kts 246°
2026-04-29 13:47 50.46203 4.45416 601 ft 36 kts 246°
2026-04-29 13:48 50.46097 4.45051 598 ft 38 kts 247°
2026-04-29 13:48 50.45988 4.44674 600 ft 33 kts 245°
2026-04-29 13:48 50.45883 4.44377 602 ft 32 kts 231°
2026-04-29 13:48 50.45741 4.44092 597 ft 35 kts 229°
2026-04-29 13:49 50.45580 4.43923 594 ft 17 kts 127°
2026-04-29 13:49 50.45617 4.44019 596 ft 9 kts 68°
2026-04-29 13:49 50.45622 4.44037 596 ft 0 kts 66°
2026-04-29 13:49 50.45633 4.44075 596 ft 16 kts 66°
2026-04-29 13:50 50.45785 4.44601 601 ft 87 kts 66°
2026-04-29 13:50 50.46125 4.45768 616 ft 143 kts 65°
2026-04-29 13:50 50.46550 4.47289 1062 ft 162 kts 66°
2026-04-29 13:50 50.47084 4.48875 1895 ft 166 kts 66°
2026-04-29 13:51 50.47700 4.50512 2595 ft 180 kts 54°
2026-04-29 13:51 50.48569 4.52065 3011 ft 204 kts 53°
2026-04-29 13:51 50.49537 4.53788 3225 ft 211 kts 52°
2026-04-29 13:51 50.50591 4.55511 3841 ft 237 kts 47°
2026-04-29 13:52 50.51808 4.57397 4564 ft 250 kts 49°
2026-04-29 13:52 50.52966 4.59434 5580 ft 251 kts 56°
2026-04-29 13:52 50.54035 4.61634 6566 ft 255 kts 55°
2026-04-29 13:52 50.55129 4.63866 7507 ft 259 kts 55°
2026-04-29 13:53 50.56224 4.66087 8542 ft 258 kts 55°
2026-04-29 13:53 50.57339 4.68344 9452 ft 264 kts 54°
2026-04-29 13:53 50.58486 4.70660 10290 ft 269 kts 53°
2026-04-29 13:53 50.59662 4.73033 10936 ft 283 kts 54°
2026-04-29 13:54 50.60917 4.75570 11301 ft 304 kts 53°
2026-04-29 13:54 50.62258 4.78286 11667 ft 324 kts 53°
2026-04-29 13:54 50.63673 4.81164 12145 ft 337 kts 56°
2026-04-29 13:54 50.64706 4.84464 12717 ft 345 kts 75°
2026-04-29 13:55 50.64890 4.88214 13609 ft 346 kts 95°
2026-04-29 13:55 50.64245 4.91902 14309 ft 356 kts 112°
2026-04-29 13:55 50.62814 4.95139 14989 ft 365 kts 130°
2026-04-29 13:55 50.61027 4.98044 15609 ft 372 kts 131°
2026-04-29 13:56 50.59310 5.00817 16223 ft 376 kts 130°
2026-04-29 13:56 50.57633 5.03497 16855 ft 380 kts 131°
2026-04-29 13:56 50.55752 5.06474 17424 ft 387 kts 131°
2026-04-29 13:56 50.53837 5.09488 18097 ft 390 kts 130°
2026-04-29 13:57 50.51899 5.12528 18694 ft 396 kts 131°
2026-04-29 13:57 50.49932 5.15606 19232 ft 399 kts 131°
2026-04-29 13:57 50.47961 5.18689 19832 ft 402 kts 131°
2026-04-29 13:57 50.45972 5.21796 20404 ft 405 kts 131°
2026-04-29 13:58 50.43967 5.24922 20972 ft 408 kts 131°
2026-04-29 13:58 50.41973 5.28029 21528 ft 410 kts 132°
2026-04-29 13:58 50.39927 5.31212 22089 ft 413 kts 132°
2026-04-29 13:58 50.37876 5.34398 22630 ft 416 kts 131°
2026-04-29 13:59 50.35811 5.37603 23175 ft 419 kts 132°
2026-04-29 13:59 50.33733 5.40823 23704 ft 422 kts 132°
2026-04-29 13:59 50.31638 5.44066 24148 ft 424 kts 132°
2026-04-29 13:59 50.29560 5.47276 24590 ft 426 kts 132°
2026-04-29 14:00 50.27444 5.50544 25060 ft 428 kts 131°
2026-04-29 14:00 50.25319 5.53819 25526 ft 430 kts 131°
2026-04-29 14:00 50.23176 5.57119 25906 ft 433 kts 131°
2026-04-29 14:00 50.21028 5.60421 26336 ft 435 kts 131°
2026-04-29 14:01 50.18865 5.63742 26750 ft 437 kts 131°
2026-04-29 14:01 50.16693 5.67071 27160 ft 439 kts 131°
2026-04-29 14:01 50.14511 5.70413 27577 ft 440 kts 131°
2026-04-29 14:01 50.12320 5.73765 27978 ft 443 kts 131°
2026-04-29 14:02 50.10116 5.77134 28373 ft 445 kts 131°
2026-04-29 14:02 50.07822 5.80402 28732 ft 451 kts 140°
2026-04-29 14:02 50.05128 5.82852 29177 ft 456 kts 147°
2026-04-29 14:02 50.02351 5.85273 29528 ft 458 kts 146°
2026-04-29 14:03 49.99559 5.87690 29917 ft 460 kts 146°
2026-04-29 14:03 49.96751 5.90092 30278 ft 461 kts 146°
2026-04-29 14:03 49.93940 5.92483 30713 ft 460 kts 146°
2026-04-29 14:03 49.91129 5.94870 31056 ft 461 kts 147°
2026-04-29 14:04 49.88317 5.97253 31444 ft 461 kts 147°
2026-04-29 14:04 49.85503 5.99634 31846 ft 460 kts 147°
2026-04-29 14:04 49.82688 6.02014 32249 ft 459 kts 147°
2026-04-29 14:04 49.79889 6.04377 32647 ft 459 kts 147°
2026-04-29 14:05 49.77073 6.06750 32948 ft 460 kts 148°
2026-04-29 14:05 49.74257 6.09121 33308 ft 460 kts 148°
2026-04-29 14:05 49.71480 6.11455 33679 ft 460 kts 148°
2026-04-29 14:05 49.68663 6.13820 34044 ft 460 kts 148°
2026-04-29 14:06 49.65834 6.16194 34361 ft 460 kts 148°
2026-04-29 14:06 49.63012 6.18556 34630 ft 461 kts 148°
2026-04-29 14:06 49.60183 6.20923 34881 ft 462 kts 148°
2026-04-29 14:06 49.57393 6.23254 35115 ft 463 kts 149°
2026-04-29 14:07 49.51668 6.28025 35240 ft 471 kts 150°
2026-04-29 14:07 49.45862 6.32852 35201 ft 473 kts 150°
2026-04-29 14:08 49.40083 6.37642 35199 ft 471 kts 150°
2026-04-29 14:08 49.34313 6.42413 35184 ft 471 kts 151°
2026-04-29 14:09 49.28524 6.47187 35192 ft 477 kts 151°
2026-04-29 14:09 49.22653 6.52015 35183 ft 480 kts 151°
2026-04-29 14:10 49.16801 6.56814 35184 ft 480 kts 151°
2026-04-29 14:10 49.10888 6.61651 35169 ft 481 kts 152°
2026-04-29 14:11 49.04988 6.66464 35183 ft 484 kts 153°
2026-04-29 14:11 48.99035 6.71275 35177 ft 483 kts 156°
2026-04-29 14:12 48.92871 6.75402 35175 ft 484 kts 157°
2026-04-29 14:12 48.86719 6.79589 35139 ft 484 kts 158°
2026-04-29 14:13 48.80574 6.83778 35159 ft 488 kts 158°
2026-04-29 14:13 48.74366 6.87999 35162 ft 487 kts 158°
2026-04-29 14:14 48.68214 6.92172 35149 ft 487 kts 158°
2026-04-29 14:14 48.62022 6.96360 35185 ft 487 kts 158°
2026-04-29 14:15 48.55833 7.00535 35150 ft 486 kts 158°
2026-04-29 14:15 48.49644 7.04700 35137 ft 486 kts 158°
2026-04-29 14:16 48.43448 7.08856 35151 ft 486 kts 158°
2026-04-29 14:16 48.37264 7.12995 35135 ft 490 kts 159°
2026-04-29 14:17 48.31028 7.17157 35136 ft 489 kts 159°
2026-04-29 14:17 48.24796 7.21305 35134 ft 489 kts 159°
2026-04-29 14:18 48.18601 7.25422 35107 ft 490 kts 160°
2026-04-29 14:18 48.12351 7.29556 35137 ft 491 kts 160°
2026-04-29 14:19 48.06126 7.33667 35132 ft 491 kts 160°
2026-04-29 14:19 47.99865 7.37790 35129 ft 491 kts 160°
2026-04-29 14:20 47.93611 7.41898 35118 ft 490 kts 160°
2026-04-29 14:20 47.87358 7.45994 35118 ft 490 kts 160°
2026-04-29 14:21 47.81141 7.50058 35106 ft 490 kts 160°
2026-04-29 14:21 47.74889 7.54141 35090 ft 489 kts 159°
2026-04-29 14:22 47.69787 7.57764 35114 ft 488 kts 159°
2026-04-29 14:22 47.62640 7.62804 35104 ft 489 kts 159°
2026-04-29 14:23 47.56481 7.67128 35108 ft 489 kts 159°
2026-04-29 14:23 47.51365 7.70713 35092 ft 488 kts 159°
2026-04-29 14:24 47.45211 7.75013 35110 ft 488 kts 159°
2026-04-29 14:24 47.39095 7.79276 35112 ft 487 kts 159°
2026-04-29 14:25 47.32938 7.83557 35109 ft 486 kts 159°
2026-04-29 14:25 47.26838 7.87787 35110 ft 487 kts 159°
2026-04-29 14:26 47.20699 7.92033 35111 ft 487 kts 159°
2026-04-29 14:26 47.14559 7.96269 35096 ft 487 kts 159°
2026-04-29 14:27 47.08424 8.00492 35101 ft 487 kts 158°
2026-04-29 14:28 46.99214 8.06808 35127 ft 487 kts 158°
2026-04-29 14:28 46.93115 8.10979 35126 ft 487 kts 159°
2026-04-29 14:29 46.86957 8.15180 35114 ft 487 kts 158°
2026-04-29 14:29 46.80813 8.19359 35119 ft 488 kts 158°
2026-04-29 14:30 46.74706 8.23503 35159 ft 486 kts 158°
2026-04-29 14:30 46.68552 8.27668 35095 ft 487 kts 159°
2026-04-29 14:31 46.62390 8.31829 35117 ft 487 kts 158°
2026-04-29 14:31 46.56242 8.35969 35090 ft 486 kts 159°
2026-04-29 14:32 46.50129 8.40076 35100 ft 487 kts 158°
2026-04-29 14:32 46.43993 8.44188 35098 ft 486 kts 158°
2026-04-29 14:33 46.37842 8.48298 35062 ft 487 kts 159°
2026-04-29 14:33 46.31652 8.52427 35122 ft 489 kts 159°
2026-04-29 14:34 46.25516 8.56507 35097 ft 487 kts 159°
2026-04-29 14:34 46.19347 8.60603 35100 ft 487 kts 158°
2026-04-29 14:35 46.13179 8.64686 35100 ft 487 kts 158°
2026-04-29 14:35 46.07170 8.69193 35102 ft 490 kts 153°
2026-04-29 14:36 46.01190 8.73900 35070 ft 487 kts 154°
2026-04-29 14:36 45.95215 8.78544 35076 ft 488 kts 154°
2026-04-29 14:37 45.89243 8.83171 35098 ft 488 kts 154°
2026-04-29 14:37 45.83265 8.87793 35068 ft 488 kts 154°
2026-04-29 14:38 45.77301 8.92392 35076 ft 485 kts 154°
2026-04-29 14:38 45.71357 8.96965 35061 ft 485 kts 154°
2026-04-29 14:39 45.65410 9.01527 35067 ft 485 kts 155°
2026-04-29 14:39 45.59465 9.06032 35043 ft 486 kts 155°
2026-04-29 14:40 45.53492 9.10551 35046 ft 485 kts 155°
2026-04-29 14:40 45.47515 9.15062 35048 ft 485 kts 155°
2026-04-29 14:41 45.41575 9.19534 35049 ft 485 kts 155°
2026-04-29 14:41 45.35606 9.24018 35044 ft 484 kts 155°
2026-04-29 14:42 45.29635 9.28491 35053 ft 484 kts 155°
2026-04-29 14:42 45.23666 9.32953 35040 ft 484 kts 155°
2026-04-29 14:43 45.17733 9.37379 35031 ft 484 kts 155°
2026-04-29 14:43 45.11771 9.41814 35039 ft 484 kts 155°
2026-04-29 14:44 45.05803 9.46242 35039 ft 484 kts 155°
2026-04-29 14:44 44.99831 9.50664 35043 ft 484 kts 155°
2026-04-29 14:45 44.93902 9.55045 35045 ft 482 kts 155°
2026-04-29 14:45 44.87946 9.59434 35053 ft 482 kts 155°
2026-04-29 14:46 44.81986 9.63816 35049 ft 483 kts 155°
2026-04-29 14:46 44.76020 9.68192 35038 ft 482 kts 155°
2026-04-29 14:47 44.70113 9.72514 35040 ft 481 kts 155°
2026-04-29 14:47 44.64163 9.76859 35035 ft 481 kts 155°
2026-04-29 14:47 44.61200 9.79018 34440 ft 482 kts 155°
2026-04-29 14:48 44.58193 9.81208 33449 ft 487 kts 154°
2026-04-29 14:48 44.55202 9.83383 32893 ft 481 kts 154°
2026-04-29 14:48 44.52238 9.85535 32167 ft 479 kts 154°
2026-04-29 14:48 44.49273 9.87686 31386 ft 480 kts 154°
2026-04-29 14:49 44.46301 9.89839 30587 ft 481 kts 154°
2026-04-29 14:49 44.43322 9.91996 29702 ft 482 kts 154°
2026-04-29 14:49 44.40337 9.94153 28744 ft 483 kts 154°
2026-04-29 14:49 44.37344 9.96314 27758 ft 485 kts 154°
2026-04-29 14:50 44.34377 9.98455 26799 ft 488 kts 154°
2026-04-29 14:50 44.31355 10.00633 25835 ft 489 kts 154°
2026-04-29 14:50 44.28284 10.02844 24782 ft 492 kts 154°
2026-04-29 14:50 44.25273 10.05009 23989 ft 490 kts 154°
2026-04-29 14:51 44.22203 10.07019 23271 ft 482 kts 163°
2026-04-29 14:51 44.18983 10.08232 22503 ft 476 kts 167°
2026-04-29 14:51 44.15804 10.09401 21842 ft 469 kts 167°
2026-04-29 14:51 44.12684 10.10529 21078 ft 466 kts 167°
2026-04-29 14:52 44.09567 10.11642 20494 ft 459 kts 167°
2026-04-29 14:52 44.06485 10.12746 19748 ft 457 kts 167°
2026-04-29 14:52 44.03420 10.13866 19162 ft 451 kts 167°
2026-04-29 14:52 44.00404 10.14972 18431 ft 447 kts 167°
2026-04-29 14:53 43.97356 10.16093 17471 ft 451 kts 167°
2026-04-29 14:53 43.94331 10.16872 16852 ft 441 kts 179°
2026-04-29 14:53 43.91327 10.16480 16351 ft 427 kts 196°
2026-04-29 14:53 43.88624 10.14972 15867 ft 414 kts 212°
2026-04-29 14:54 43.86421 10.12587 15861 ft 390 kts 225°
2026-04-29 14:54 43.84518 10.10026 15867 ft 372 kts 228°
2026-04-29 14:54 43.82985 10.07229 15749 ft 357 kts 238°
2026-04-29 14:54 43.81339 10.04744 15575 ft 350 kts 216°
2026-04-29 14:55 43.79107 10.03503 15343 ft 348 kts 190°
2026-04-29 14:55 43.76749 10.03755 15105 ft 346 kts 164°
2026-04-29 14:55 43.74673 10.05425 14711 ft 350 kts 137°
2026-04-29 14:55 43.73339 10.08207 14344 ft 351 kts 110°
2026-04-29 14:56 43.73027 10.11532 13970 ft 350 kts 83°
2026-04-29 14:56 43.73532 10.14802 13605 ft 347 kts 75°
2026-04-29 14:56 43.74154 10.18028 13203 ft 345 kts 75°
2026-04-29 14:56 43.74779 10.21234 12785 ft 344 kts 75°
2026-04-29 14:57 43.75402 10.24413 12340 ft 339 kts 75°
2026-04-29 14:57 43.76094 10.27500 11432 ft 344 kts 66°
2026-04-29 14:57 43.77169 10.30506 10430 ft 351 kts 62°
2026-04-29 14:57 43.78324 10.33515 9391 ft 357 kts 62°
2026-04-29 14:58 43.79504 10.36569 8319 ft 360 kts 62°
2026-04-29 14:58 43.80697 10.39632 7304 ft 360 kts 62°
2026-04-29 14:58 43.81888 10.42668 6343 ft 357 kts 62°
2026-04-29 14:58 43.83078 10.45661 5361 ft 353 kts 62°
2026-04-29 14:59 43.84251 10.48578 4421 ft 348 kts 61°
2026-04-29 14:59 43.85663 10.51196 4207 ft 326 kts 49°
2026-04-29 14:59 43.87147 10.53398 4130 ft 300 kts 48°
2026-04-29 14:59 43.88271 10.55738 3741 ft 286 kts 71°
2026-04-29 15:00 43.88575 10.58330 3643 ft 262 kts 96°
2026-04-29 15:00 43.88077 10.60604 3667 ft 235 kts 123°
2026-04-29 15:00 43.86976 10.62115 3658 ft 213 kts 154°
2026-04-29 15:00 43.85635 10.62540 3745 ft 191 kts 185°
2026-04-29 15:01 43.84432 10.61895 3633 ft 187 kts 220°
2026-04-29 15:01 43.83734 10.60414 3538 ft 187 kts 254°
2026-04-29 15:01 43.83504 10.58664 3453 ft 185 kts 257°
2026-04-29 15:01 43.83175 10.57017 3317 ft 171 kts 251°
2026-04-29 15:02 43.82820 10.55512 3183 ft 157 kts 244°
2026-04-29 15:02 43.82261 10.54237 3073 ft 153 kts 230°
2026-04-29 15:02 43.81513 10.53146 2929 ft 161 kts 220°
2026-04-29 15:02 43.80623 10.52127 2755 ft 170 kts 218°
2026-04-29 15:03 43.79721 10.51152 2562 ft 157 kts 220°
2026-04-29 15:03 43.78911 10.50191 2440 ft 151 kts 219°
2026-04-29 15:03 43.78111 10.49268 2242 ft 150 kts 220°
2026-04-29 15:03 43.77308 10.48357 1969 ft 148 kts 218°
2026-04-29 15:04 43.76489 10.47539 1846 ft 147 kts 215°
2026-04-29 15:04 43.75628 10.46610 1691 ft 174 kts 219°
2026-04-29 15:04 43.74716 10.45616 1430 ft 161 kts 219°
2026-04-29 15:04 43.73834 10.44730 1174 ft 156 kts 217°
2026-04-29 15:05 43.72907 10.43777 987 ft 176 kts 218°
2026-04-29 15:05 43.72239 10.43105 821 ft 176 kts 216°
2026-04-29 15:05 43.71037 10.41859 474 ft 150 kts 224°
2026-04-29 15:05 43.70203 10.40974 258 ft 151 kts 220°
2026-04-29 15:06 43.69374 10.40127 56 ft 146 kts 219°
2026-04-29 15:06 43.68636 10.39367 20 ft 116 kts 219°
2026-04-29 15:06 43.68175 10.38886 16 ft 47 kts 214°
2026-04-29 15:06 43.68050 10.38759 15 ft 16 kts 219°
2026-04-29 15:07 43.67946 10.38655 17 ft 19 kts 216°
2026-04-29 15:07 43.67837 10.38541 17 ft 20 kts 216°
2026-04-29 15:07 43.67713 10.38416 17 ft 25 kts 218°
2026-04-29 15:07 43.67683 10.38229 17 ft 23 kts 312°
2026-04-29 15:08 43.67822 10.38148 17 ft 24 kts
2026-04-29 15:08 43.67962 10.38270 17 ft 25 kts 36°
2026-04-29 15:08 43.68108 10.38418 17 ft 27 kts 37°
2026-04-29 15:08 43.68264 10.38576 17 ft 29 kts 36°
2026-04-29 15:09 43.68357 10.38695 17 ft 23 kts 83°
2026-04-29 15:09 43.68250 10.38943 16 ft 20 kts 85°
2026-04-29 15:09 43.68347 10.39068 18 ft 19 kts 37°
2026-04-29 15:09 43.68455 10.39175 20 ft 20 kts 36°
2026-04-29 15:10 43.68534 10.39259 20 ft 22 kts 37°
2026-04-29 15:10 43.68649 10.39377 20 ft 25 kts 37°
2026-04-29 15:10 43.68844 10.39579 21 ft 49 kts 36°
2026-04-29 15:10 43.69073 10.39814 22 ft 32 kts 36°
2026-04-29 15:11 43.69337 10.39900 19 ft 49 kts 349°
2026-04-29 15:11 43.69616 10.39936 18 ft 26 kts
2026-04-29 15:11 43.69685 10.39961 18 ft 1 kts 44°
2026-04-29 15:11 43.69690 10.39976 18 ft 4 kts 82°
2026-04-29 15:12 43.69680 10.40033 18 ft 2 kts 96°
2026-04-29 15:12 43.69712 10.40082 18 ft 10 kts 10°
2026-04-29 15:12 43.69759 10.40093 17 ft 0 kts